Location: Monrovia
(34.7865°N, 86.7139°W)
Time: 21:34:23
(UTC+00:00)

Cosmos 1975 Rocket - Pass Details

Date: 14 July 2020
Orbit: 605 x 633 km, 82.5° (Epoch: 08 August)

Event Time Altitude Azimuth Distance (km) Brightness Sun altitude
Rises 10:04:42 0° 341° (NNW) 2,908 6.7 -7.9°
Reaches altitude 10° 10:07:06 10° 332° (NNW) 2,002 5.7 -7.5°
Maximum altitude 10:11:02 32° 269° (W) 1,079 3.9 -6.8°
Drops below altitude 10° 10:14:59 10° 206° (SSW) 2,002 5.2 -6.1°
Sets 10:17:23 0° 197° (SSW) 2,907 6.1 -5.7°
